星链-2409 (STARLINK-2409 )

导读 | 豆包AI

STARLINK-2409是美国太空探索技术公司星链计划中的一颗卫星,该计划旨在构建全球卫星互联网星座。卫星于2021年3月11日发射入轨,属于低轨通信卫星,承担为全球偏远地区、空中海洋场景以及地面网络补充区域提供互联网接入服务的任务,是星链星座组网过程中发射的批量卫星之一。

基本信息
目录编号:
47824
目录名称:
STARLINK-2409
国际标识:
2021-018AP
轨道中心:
EARTH
卫星名称:
星链-2409
卫星全名:
星链-2409 (STARLINK-2409 )
卫星状态:
在轨 (已飞行1876 天)
发射日期:
2021-03-11 UTC
国别 :
美国 (US)
星等 :
--
轨道信息
数据来源 国际轨道数据
星历时间: 2026-04-30T08:31:46+0800
12小时前
查看轨道信息
半长轴: 6855.866km
偏心率: 0.000143
轨道倾角: 53.156°
近地点辐角 96.948°
升交点赤经 19.347°
平近点角 263.168°
近地点: 476.748km
远地点: 478.71km
周期: 94.157分钟
每日圈数: 15.293587
详细信息
固有亮度:
5
最大亮度:
2.5
卫星平台:
Starlink V1.0
覆盖范围:
全球
运营商:
太空探索技术公司
运营商所在国:
美国
制造商(研发单位):
太空探索技术公司
制造商所在国:
美国
使用方式:
暂无
卫星简介
星链(Starlink)计划是由太空探索技术公司(SpaceX)提出的一个巨型低轨卫星互联网星座项目,计划在2019年至2024年间在太空搭建由约1.2万颗卫星组成的“星链”网络,其中1584颗将部署在地球上空550千米处的近地轨道,并从2020年开始工作。该卫星仍在工作。
2D轨道图
3D轨道图
轨道高度分析图
轨道倾角分析图
轨道综合分析图
查看轨道综合分析图